TimeAKST,TemperatureF,Dew PointF,Humidity,Sea Level PressureIn,VisibilityMPH,Wind Direction,Wind SpeedMPH,Gust SpeedMPH,PrecipitationIn,Events,Conditions,WindDirDegrees,DateUTC
12:53 AM,3.9,1.0,88,29.10,10.0,Calm,Calm,-,N/A,,Partly Cloudy,0,2011-11-21 09:53:00
1:53 AM,3.9,-0.9,80,29.08,10.0,Calm,Calm,-,N/A,,Clear,0,2011-11-21 10:53:00
3:53 AM,-5.1,-9.0,83,29.03,10.0,Calm,Calm,-,N/A,,Clear,0,2011-11-21 12:53:00
4:53 AM,-4.0,-9.9,76,29.02,10.0,Calm,Calm,-,N/A,,Clear,0,2011-11-21 13:53:00
4:58 AM,-4.0,-9.4,78,29.01,10.0,Calm,Calm,-,N/A,,Partly Cloudy,0,2011-11-21 13:58:00
5:31 AM,-2.2,-9.4,71,29.00,10.0,Calm,Calm,-,N/A,,Clear,0,2011-11-21 14:31:00
5:53 AM,-4.0,-9.0,79,29.00,9.0,SE,3.5,-,N/A,,Clear,130,2011-11-21 14:53:00
6:43 AM,-4.0,-11.2,71,28.99,10.0,Calm,Calm,-,N/A,,Partly Cloudy,0,2011-11-21 15:43:00
6:53 AM,-7.1,-13.0,75,28.99,10.0,Calm,Calm,-,N/A,,Partly Cloudy,0,2011-11-21 15:53:00
7:53 AM,-2.0,-9.0,72,28.98,9.0,SSE,3.5,-,N/A,,Mostly Cloudy,150,2011-11-21 16:53:00
8:53 AM,-2.0,-7.1,79,28.97,10.0,Calm,Calm,-,N/A,,Clear,0,2011-11-21 17:53:00
8:54 AM,-0.4,-7.6,72,28.96,10.0,Calm,Calm,-,N/A,,Scattered Clouds,0,2011-11-21 17:54:00
9:53 AM,-2.0,-8.0,76,28.97,9.0,Calm,Calm,-,N/A,,Scattered Clouds,0,2011-11-21 18:53:00
10:53 AM,1.9,-4.0,76,28.98,10.0,Calm,Calm,-,N/A,,Overcast,0,2011-11-21 19:53:00
11:53 AM,3.9,-2.0,76,28.96,10.0,Calm,Calm,-,N/A,,Overcast,0,2011-11-21 20:53:00
12:53 PM,10.0,-2.9,56,28.96,10.0,Calm,Calm,-,N/A,,Overcast,0,2011-11-21 21:53:00
1:53 PM,9.0,-6.0,51,28.95,10.0,Calm,Calm,-,N/A,,Mostly Cloudy,0,2011-11-21 22:53:00
2:53 PM,7.0,-7.1,53,28.94,10.0,Calm,Calm,-,N/A,,Scattered Clouds,0,2011-11-21 23:53:00
3:53 PM,8.1,-5.1,55,28.94,10.0,Calm,Calm,-,N/A,,Mostly Cloudy,0,2011-11-22 00:53:00
4:53 PM,8.1,-9.0,46,28.93,10.0,North,8.1,-,N/A,,Scattered Clouds,350,2011-11-22 01:53:00
5:53 PM,7.0,-11.0,44,28.92,10.0,North,9.2,-,N/A,,Mostly Cloudy,350,2011-11-22 02:53:00
6:53 PM,7.0,-9.9,46,28.90,10.0,NNE,6.9,-,N/A,,Overcast,20,2011-11-22 03:53:00
7:00 PM,6.8,-7.6,52,28.89,10.0,North,6.9,-,N/A,,Overcast,10,2011-11-22 04:00:00
7:53 PM,6.1,-5.1,60,28.89,3.0,North,9.2,-,0.00,Snow,Light Snow,360,2011-11-22 04:53:00
8:14 PM,6.8,-2.2,67,28.88,2.0,North,6.9,-,0.00,Snow,Light Snow,10,2011-11-22 05:14:00
8:53 PM,5.0,-4.0,66,28.88,2.0,North,9.2,-,0.00,Snow,Light Snow,350,2011-11-22 05:53:00
9:53 PM,3.9,-4.0,70,28.86,2.0,North,9.2,-,0.00,Snow,Light Snow,350,2011-11-22 06:53:00
10:26 PM,3.2,-4.0,72,28.84,2.0,NNW,8.1,-,0.00,Snow,Light Snow,340,2011-11-22 07:26:00
10:43 PM,3.2,-4.0,72,28.83,2.0,NNW,10.4,-,0.00,Snow,Light Snow,340,2011-11-22 07:43:00
10:48 PM,3.2,-5.8,66,28.83,1.8,NNW,10.4,-,0.00,Snow,Light Snow,330,2011-11-22 07:48:00
10:53 PM,3.0,-4.0,73,28.84,1.8,NNW,11.5,-,0.00,Snow,Light Snow,340,2011-11-22 07:53:00
11:12 PM,3.2,-5.8,66,28.82,2.0,NNW,9.2,-,0.00,Snow,Light Snow,330,2011-11-22 08:12:00
11:53 PM,3.0,-4.0,73,28.82,1.5,North,10.4,-,0.00,Snow,Light Snow,350,2011-11-22 08:53:00